Find Starlink 3131

NORAD ID: 49427 Int'l Des: 2021-104 Owner: SPXS Country: US Constellation: starlink operational
LEOCIRCULAR

Live-Position

3D-Globus wird geladen...

Über Starlink 3131

Beschreibung wird geladen...

Nächste Überflüge

Passes for default location (London). Set your location on the main map for personalized predictions.

Höhenverlauf

Loading altitude history...

Zweizeiliger Elementsatz

1 49427U 21104V 26124.97646691 .00000976 00000-0 79374-4 0 9993
2 49427 53.2182 336.4501 0001326 89.1835 270.9309 15.08838802247137
Epoch: 4. Mai 2026 • Age: 20 hours

Aktueller Status

Höhe 558.0 km
Geschwindigkeit 7.58 km/s
Subsatellitenpunkt -50.35°S, 108.53°E
Startdatum 13. Nov. 2021
Alter 4.4 years
Typ internet

Technische Details

Klassifizierung Payload
Masse 290.00 kg
Trockenmasse 270.00 kg
Gesamtmasse 290.00 kg
Länge 0.20 m
Durchmesser 2.80 m
Spannweite 9.00 m
Form Box + pan
Hersteller SPXS
Bus-Typ Starlink
Phasenstatus In Orbit
Besitzer/Staat SPXS/US

Most Searched